This is the latest recevied weather packets stored in our database for station/object SP2NBH-2. If no packets are shown the sender has not sent any weather packets the latest 10 day(s).
| Time | Temp. | Humidity | Pressure | Rain* | Wind** | Luminosity | Snow |
|---|---|---|---|---|---|---|---|
| 1777958386 | 15° C | 59% | 1012.9 hPa | - | - | - | - |
| 1777957486 | 15° C | 62% | 1013 hPa | - | - | - | - |
| 1777956586 | 13.33° C | 68% | 1013.1 hPa | - | - | - | - |
| 1777955686 | 12.22° C | 69% | 1013.1 hPa | - | - | - | - |
| 1777954786 | 12.22° C | 71% | 1013.1 hPa | - | - | - | - |
| 1777954115 | 11.67° C | 79% | 1013.1 hPa | - | - | - | - |
| 1777953886 | 11.67° C | 79% | 1013.1 hPa | - | - | - | - |
| 1777943182 | 8.89° C | 73% | 1012.9 hPa | - | - | - | - |
| 1777942282 | 9.44° C | 73% | 1012.9 hPa | - | - | - | - |
| 1777941382 | 10° C | 73% | 1012.9 hPa | - | - | - | - |
| 1777940482 | 10° C | 73% | 1012.9 hPa | - | - | - | - |
| 1777935084 | 10° C | 73% | 1013.3 hPa | - | - | - | - |
| 1777933284 | 11.11° C | 72% | 1013.5 hPa | - | - | - | - |
| 1777932383 | 11.11° C | 73% | 1013.5 hPa | - | - | - | - |
| 1777930584 | 11.67° C | 74% | 1013.6 hPa | - | - | - | - |
| 1777929683 | 11.67° C | 69% | 1013.5 hPa | - | - | - | - |
| 1777926983 | 11.67° C | 70% | 1013.5 hPa | - | - | - | - |
| 1777926083 | 12.22° C | 69% | 1013.3 hPa | - | - | - | - |
| 1777925183 | 12.22° C | 69% | 1013.3 hPa | - | - | - | - |
| 1777924283 | 12.78° C | 69% | 1013.3 hPa | - | - | - | - |
| 1777922482 | 13.33° C | 67% | 1013.3 hPa | - | - | - | - |
| 1777920682 | 13.33° C | 65% | 1013.1 hPa | - | - | - | - |
| 1777919782 | 13.89° C | 65% | 1013 hPa | - | - | - | - |
| 1777918881 | 15° C | 64% | 1012.9 hPa | - | - | - | - |
| 1777917176 | 15.56° C | 60% | 1012.6 hPa | - | - | - | - |
* Rain since midnight (hover to see other rain measurements)
** Current wind speed in m/s (hover to see current wind gust speed)